カタログに戻る

ARIANE 42P DEB

運用中LEO
NORAD 44511·DEBRIS·🇫🇷 France

打ち上げ Aug 10, 1992 から Guiana Space Centre

Loading…

次のパス (今後24時間)

TLE

最新Source: Space-Track

元期: Sep 14, 2026, 12:27 UTC

1 44511U 92052J   26257.51939242  .00001151  00000-0  48776-2 0  9992
2 44511  66.0651  91.5101 0060175 241.9536 117.5388 12.85846797331712

AllMySatでARIANE 42P DEBをリアルタイム追跡

Download on the App Store